Location: Clanezzo
(45.7500°N, 9.6000°E)
Time: 08:32:26
(UTC+00:00)

BEESAT - Visible Passes

Search period start: 27 June 2022 00:00
Search period end: 07 July 2022 00:00
Orbit: 698 x 708 km, 98.6° (Epoch: 26 June)

Date Brightness Start Highest point End Pass type
(mag) Time Alt. Az. Time Alt. Az. Time Alt. Az.
27 Jun ? 20:40:08 10° N 20:44:28 35° WNW 20:48:48 10° SW visible
28 Jun ? 19:45:04 10° NNE 19:49:51 73° ESE 19:54:37 10° S visible
28 Jun ? 21:24:10 10° NNW 21:27:01 16° WNW 21:29:50 10° W visible
29 Jun ? 20:28:11 10° N 20:32:44 45° WNW 20:37:16 10° SW visible
30 Jun ? 21:11:56 10° NNW 21:15:21 20° WNW 21:18:47 10° WSW visible
01 Jul ? 20:16:17 10° N 20:20:59 59° WNW 20:25:40 10° SSW visible
02 Jul ? 20:59:49 10° N 21:03:41 25° WNW 21:07:32 10° WSW visible
03 Jul ? 20:04:26 10° N 20:09:13 76° WNW 20:13:58 10° SSW visible
03 Jul ? 21:44:44 10° NW 21:46:06 11° NW 21:47:27 10° WNW visible
04 Jul ? 20:47:46 10° N 20:51:58 31° WNW 20:56:09 10° SW visible
05 Jul ? 19:52:36 10° NNE 19:57:24 83° ESE 20:02:11 10° SSW visible
05 Jul ? 21:32:00 10° NNW 21:34:28 14° WNW 21:36:56 10° W visible
06 Jul ? 20:35:47 10° N 20:40:15 40° WNW 20:44:41 10° SW visible
